DW1449 Weather Reports


Display with metric or nautical units.
time (UTC)temp
F
wind
direction
speed
MPH
gust
MPH
rain 1hr
in
rain 24hr
in
rain mn
in
humidity
%
barometer
mb
20260510221034 43 0.0 0.0 0.00 0.00 0.00 91 1008.9
20260510220537 43 0.0 0.0 0.00 0.00 0.00 91 1009.0
20260510220043 43 0.0 0.0 0.00 0.00 0.00 91 1009.1
20260510215534 43 0.0 0.0 0.00 0.00 0.00 91 1009.0
20260510215036 43 0.0 0.0 0.00 0.00 0.00 91 1009.2
20260510214548 43 0.0 0.0 0.00 0.00 0.00 92 1009.0
20260510214037 43 0.0 0.0 0.00 0.00 0.00 91 1009.2
20260510213535 43 0.0 0.0 0.00 0.00 0.00 91 1009.3
20260510213050 43 0.0 0.0 0.00 0.00 0.00 91 1009.3
20260510212535 43 0.0 0.0 0.00 0.00 0.00 91 1009.3
20260510212040 43 0.0 0.0 0.00 0.00 0.00 90 1009.5
20260510211551 43 0.0 0.0 0.00 0.00 0.00 90 1009.5
20260510211035 43 0.0 0.0 0.00 0.00 0.00 90 1009.6
20260510210534 43 0.0 0.0 0.00 0.00 0.00 89 1009.6
20260510210052 43 0.0 0.0 0.00 0.00 0.00 89 1009.6
20260510205535 44 0.0 0.0 0.00 0.00 0.00 89 1009.8
20260510205038 44 0.0 0.0 0.00 0.00 0.00 89 1009.8
20260510204605 45 0.0 0.0 0.00 0.00 0.00 89 1009.9
20260510204036 45 0.0 0.0 0.00 0.00 0.00 89 1010.0
20260510203537 44 0.0 0.0 0.00 0.00 0.00 88 1010.0
20260510203052 45 0.0 0.0 0.00 0.00 0.00 87 1009.9
20260510202535 45 0.0 0.0 0.00 0.00 0.00 86 1010.0
20260510202035 46 0.0 0.0 0.00 0.00 0.00 87 1010.2
20260510201549 46 0.0 0.0 0.00 0.00 0.00 87 1010.2
20260510201035 46 0.0 0.0 0.00 0.00 0.00 86 1010.1
20260510200537 46 0.0 0.0 0.00 0.00 0.00 85 1010.2
20260510200051 47 0.0 0.0 0.00 0.00 0.00 85 1010.2
20260510195536 47 0.0 0.0 0.00 0.00 0.00 84 1010.0
20260510195034 47 0.0 0.0 0.00 0.00 0.00 84 1010.0
20260510194545 48 0.0 0.0 0.00 0.00 0.00 83 1010.0
20260510194035 48 0.0 0.0 0.00 0.00 0.00 83 1010.1
20260510193535 48 0.0 0.0 0.00 0.00 0.00 82 1010.1
20260510193049 49 0.0 0.0 0.00 0.00 0.00 82 1010.0
20260510192534 49 0.0 0.0 0.00 0.00 0.00 82 1010.2
20260510192036 49 0.0 0.0 0.00 0.00 0.00 82 1010.2
20260510191550 49 0.0 0.0 0.00 0.00 0.00 81 1010.2
20260510191036 49 0.0 0.0 0.00 0.00 0.00 81 1010.1
20260510190536 50 0.0 0.0 0.00 0.00 0.00 80 1010.3
20260510190051 50 0.0 0.0 0.00 0.00 0.00 80 1010.1
20260510185535 50 0.0 0.0 0.00 0.00 0.00 79 1010.2
20260510185035 51 0.0 0.0 0.00 0.00 0.00 78 1010.2
20260510184544 51 0.0 0.0 0.00 0.00 0.00 78 1010.2
20260510184040 51 0.0 0.0 0.00 0.00 0.00 77 1010.3
20260510183536 51 0.0 0.0 0.00 0.00 0.00 76 1010.5
20260510183045 51 0.0 0.0 0.00 0.00 0.00 75 1010.3
20260510182537 52 0.0 0.0 0.00 0.00 0.00 74 1010.4
20260510182035 52 0.0 0.0 0.00 0.00 0.00 73 1010.3
20260510181541 52 0.0 0.0 0.00 0.00 0.00 73 1010.4
20260510181037 52 0.0 0.0 0.00 0.00 0.00 73 1010.3
20260510180535 52 0.0 0.0 0.00 0.00 0.00 72 1010.3
20260510180049 52 0.0 0.0 0.00 0.00 0.00 71 1010.4
20260510175535 52 0.0 0.0 0.00 0.00 0.00 70 1010.4
20260510175034 53 0.0 0.0 0.00 0.00 0.00 68 1010.6
20260510174547 53 0.0 0.0 0.00 0.00 0.00 66 1010.4
20260510174037 53 0.0 0.0 0.00 0.00 0.00 66 1010.6
20260510173535 53 0.0 0.0 0.00 0.00 0.00 65 1010.6
20260510173048 53 0.0 0.0 0.00 0.00 0.00 66 1010.7
20260510172535 53 0.0 0.0 0.00 0.00 0.00 65 1010.7
20260510172035 53 0.0 0.0 0.00 0.00 0.00 65 1010.7
20260510171546 54 0.0 0.0 0.00 0.00 0.00 62 1010.8
20260510171034 54 0.0 0.0 0.00 0.00 0.00 64 1010.8
20260510170536 54 0.0 0.0 0.00 0.00 0.00 68 1010.7
20260510170044 54 0.0 0.0 0.00 0.00 0.00 66 1010.8
20260510165536 54 0.0 0.0 0.00 0.00 0.00 66 1010.9
20260510165035 54 0.0 0.0 0.00 0.00 0.00 66 1011.0
20260510164541 54 0.0 0.0 0.00 0.00 0.00 64 1011.0
20260510164034 54 0.0 0.0 0.00 0.00 0.00 64 1011.0
20260510163538 55 0.0 0.0 0.00 0.00 0.00 62 1011.0
20260510163046 55 0.0 0.0 0.00 0.00 0.00 63 1010.9
20260510162536 55 0.0 0.0 0.00 0.00 0.00 63 1011.0
20260510162035 55 0.0 0.0 0.00 0.00 0.00 67 1011.1
20260510161539 55 0.0 0.0 0.00 0.00 0.00 72 1011.2
20260510161037 55 0.0 0.0 0.00 0.00 0.00 75 1011.2
20260510160535 54 0.0 0.0 0.00 0.00 0.00 78 1011.4
20260510160039 54 0.0 0.0 0.00 0.00 0.00 79 1011.4
20260510155534 53 0.0 0.0 0.00 0.00 0.00 80 1011.5
20260510155035 53 0.0 0.0 0.00 0.00 0.00 81 1011.4
20260510154542 53 0.0 0.0 0.00 0.00 0.00 80 1011.6
20260510154035 53 0.0 0.0 0.00 0.00 0.00 80 1011.6
20260510153534 52 0.0 0.0 0.00 0.00 0.00 80 1011.6
20260510153041 52 0.0 0.0 0.00 0.00 0.00 80 1011.8
20260510152535 52 0.0 0.0 0.00 0.00 0.00 80 1011.8
20260510152034 52 0.0 0.0 0.00 0.00 0.00 80 1011.9
20260510151543 52 0.0 0.0 0.00 0.00 0.00 80 1011.9
20260510151034 53 0.0 0.0 0.00 0.00 0.00 80 1012.0
20260510150534 53 0.0 0.0 0.00 0.00 0.00 79 1012.1
20260510150053 53 0.0 0.0 0.00 0.00 0.00 78 1012.2
20260510145538 53 0.0 0.0 0.00 0.00 0.00 78 1012.2
20260510145035 53 0.0 0.0 0.00 0.00 0.00 78 1012.2
20260510144603 54 0.0 0.0 0.00 0.00 0.00 77 1012.2
20260510144036 54 0.0 0.0 0.00 0.00 0.00 77 1012.1
20260510143535 54 0.0 0.0 0.00 0.00 0.00 76 1012.2
20260510143054 54 0.0 0.0 0.00 0.00 0.00 75 1012.2
20260510142535 54 0.0 0.0 0.00 0.00 0.00 74 1012.3
20260510142035 55 0.0 0.0 0.00 0.00 0.00 73 1012.1
20260510141542 55 0.0 0.0 0.00 0.00 0.00 73 1012.3
20260510141035 55 0.0 0.0 0.00 0.00 0.00 72 1012.2
20260510140534 55 0.0 0.0 0.00 0.00 0.00 73 1012.2
20260510140046 55 0.0 0.0 0.00 0.00 0.00 71 1012.3
20260510135536 55 0.0 0.0 0.00 0.00 0.00 72 1012.3
20260510135035 55 0.0 0.0 0.00 0.00 0.00 71 1012.4
20260510134552 55 0.0 0.0 0.00 0.00 0.00 71 1012.5
20260510134036 55 0.0 0.0 0.00 0.00 0.00 72 1012.4
20260510133534 56 0.0 0.0 0.00 0.00 0.00 70 1012.4
20260510133039 56 0.0 0.0 0.00 0.00 0.00 68 1012.5
20260510132535 56 0.0 0.0 0.00 0.00 0.00 68 1012.4
20260510132035 57 0.0 0.0 0.00 0.00 0.00 67 1012.7
20260510131538 56 0.0 0.0 0.00 0.00 0.00 67 1012.9
20260510131036 56 0.0 0.0 0.00 0.00 0.00 66 1012.9
20260510130535 56 0.0 0.0 0.00 0.00 0.00 65 1013.0
20260510130041 57 0.0 0.0 0.00 0.00 0.00 65 1012.9
20260510125534 57 0.0 0.0 0.00 0.00 0.00 66 1013.0
20260510125035 56 0.0 0.0 0.00 0.00 0.00 67 1013.0
20260510124552 56 0.0 0.0 0.00 0.00 0.00 68 1013.2
20260510124035 55 0.0 0.0 0.00 0.00 0.00 66 1013.2
20260510123535 56 0.0 0.0 0.00 0.00 0.00 67 1013.3
20260510123042 55 0.0 0.0 0.00 0.00 0.00 67 1013.2
20260510122538 55 0.0 0.0 0.00 0.00 0.00 68 1013.4
20260510122034 54 0.0 0.0 0.00 0.00 0.00 68 1013.6
20260510121540 54 0.0 0.0 0.00 0.00 0.00 67 1013.6
20260510121034 54 0.0 0.0 0.00 0.00 0.00 68 1013.7
20260510120537 53 0.0 0.0 0.00 0.00 0.00 68 1013.6
20260510120044 53 0.0 0.0 0.00 0.00 0.00 68 1013.6
20260510115535 53 0.0 0.0 0.00 0.00 0.00 68 1013.7
20260510115035 53 0.0 0.0 0.00 0.00 0.00 68 1013.8
20260510114541 53 0.0 0.0 0.00 0.00 0.00 67 1013.9
20260510114035 53 0.0 0.0 0.00 0.00 0.00 68 1013.9
20260510113535 53 0.0 0.0 0.00 0.00 0.00 67 1014.0
20260510113043 53 0.0 0.0 0.00 0.00 0.00 67 1013.9
20260510112534 54 0.0 0.0 0.00 0.00 0.00 67 1013.9
20260510112038 54 0.0 0.0 0.00 0.00 0.00 66 1013.9
20260510111553 54 0.0 0.0 0.00 0.00 0.00 66 1014.0
20260510111034 54 0.0 0.0 0.00 0.00 0.00 66 1014.1
20260510110534 54 0.0 0.0 0.00 0.00 0.00 66 1014.2
20260510110043 53 0.0 0.0 0.00 0.00 0.00 65 1014.2
20260510105534 53 0.0 0.0 0.00 0.00 0.00 66 1014.1
20260510105036 53 0.0 0.0 0.00 0.00 0.00 65 1014.0
20260510104551 53 0.0 0.0 0.00 0.00 0.00 64 1014.2
20260510104037 52 0.0 0.0 0.00 0.00 0.00 67 1014.3
20260510103534 52 0.0 0.0 0.00 0.00 0.00 63 1014.3
20260510103046 52 0.0 0.0 0.00 0.00 0.00 63 1014.5
20260510102533 52 0.0 0.0 0.00 0.00 0.00 64 1014.5
20260510102034 51 0.0 0.0 0.00 0.00 0.00 64 1014.4
20260510101539 51 0.0 0.0 0.00 0.00 0.00 65 1014.6
20260510101033 50 0.0 0.0 0.00 0.00 0.00 67 1014.6
20260510100539 50 0.0 0.0 0.00 0.00 0.00 68 1014.7
20260510100043 50 0.0 0.0 0.00 0.00 0.00 69 1015.0
20260510095535 50 0.0 0.0 0.00 0.00 0.00 68 1014.9
20260510095035 49 0.0 0.0 0.00 0.00 0.00 68 1014.9
20260510094543 49 0.0 0.0 0.00 0.00 0.00 68 1015.1
20260510094034 49 0.0 0.0 0.00 0.00 0.00 69 1014.9
20260510093533 49 0.0 0.0 0.00 0.00 0.00 68 1015.1
20260510093042 49 0.0 0.0 0.00 0.00 0.00 68 1015.1
20260510092535 49 0.0 0.0 0.00 0.00 0.00 68 1015.3
20260510092039 49 0.0 0.0 0.00 0.00 0.00 67 1015.4
20260510091539 49 0.0 0.0 0.00 0.00 0.00 67 1015.4
20260510091034 49 0.0 0.0 0.00 0.00 0.00 67 1015.3
20260510090533 49 0.0 0.0 0.00 0.00 0.00 66 1015.4
20260510090039 49 0.0 0.0 0.00 0.00 0.00 65 1015.5
20260510085538 49 0.0 0.0 0.00 0.00 0.00 65 1015.4
20260510085034 49 0.0 0.0 0.00 0.00 0.00 65 1015.3
20260510084537 49 0.0 0.0 0.00 0.00 0.00 66 1015.4
20260510084034 49 0.0 0.0 0.00 0.00 0.00 65 1015.2
20260510083534 48 0.0 0.0 0.00 0.00 0.00 65 1015.3
20260510083043 48 0.0 0.0 0.00 0.00 0.00 65 1015.2
20260510082534 48 0.0 0.0 0.00 0.00 0.00 66 1015.4
20260510082035 48 0.0 0.0 0.00 0.00 0.00 67 1015.2
20260510081601 48 0.0 0.0 0.00 0.00 0.00 67 1015.2
20260510081035 47 0.0 0.0 0.00 0.00 0.00 68 1015.4
20260510080534 47 0.0 0.0 0.00 0.00 0.00 67 1015.3
20260510080042 47 0.0 0.0 0.00 0.00 0.00 69 1015.4
20260510075534 47 0.0 0.0 0.00 0.00 0.00 68 1015.5
20260510075032 47 0.0 0.0 0.00 0.00 0.00 69 1015.5
20260510074549 47 0.0 0.0 0.00 0.00 0.00 69 1015.6
20260510074035 47 0.0 0.0 0.00 0.00 0.00 70 1015.8
20260510073535 47 0.0 0.0 0.00 0.00 0.00 70 1015.9
20260510073049 47 0.0 0.0 0.00 0.00 0.00 71 1015.8
20260510072533 47 0.0 0.0 0.00 0.00 0.00 70 1015.8
20260510072035 47 0.0 0.0 0.00 0.00 0.00 71 1015.9
20260510071546 47 0.0 0.0 0.00 0.00 0.00 70 1016.0
20260510071034 47 0.0 0.0 0.00 0.00 0.00 71 1016.0
20260510070535 47 0.0 0.0 0.00 0.00 0.00 70 1016.0
20260510070046 47 0.0 0.0 0.00 0.00 0.00 70 1016.0
20260510065535 46 0.0 0.0 0.00 0.00 0.00 70 1016.0
20260510065034 46 0.0 0.0 0.00 0.00 0.00 71 1016.1
20260510064543 46 0.0 0.0 0.00 0.00 0.00 73 1016.1
20260510064034 46 0.0 0.0 0.00 0.00 0.00 72 1016.2
20260510063536 46 0.0 0.0 0.00 0.00 0.00 73 1016.2
20260510063051 46 0.0 0.0 0.00 0.00 0.00 74 1016.2
20260510062534 45 0.0 0.0 0.00 0.00 0.00 73 1016.0
20260510062034 45 0.0 0.0 0.00 0.00 0.00 74 1016.1
20260510061549 45 0.0 0.0 0.00 0.00 0.00 74 1016.3
20260510061037 45 0.0 0.0 0.00 0.00 0.00 74 1016.5
20260510060555 45 0.0 0.0 0.00 0.00 0.00 74 1016.5
20260510060053 45 0.0 0.0 0.00 0.00 0.00 74 1016.5
20260510055534 45 0.0 0.0 0.00 0.00 0.00 73 1016.5
20260510055035 45 0.0 0.0 0.00 0.00 0.00 73 1016.5
20260510054548 45 0.0 0.0 0.00 0.00 0.00 73 1016.4
20260510054036 45 0.0 0.0 0.00 0.00 0.00 73 1016.7
20260510053535 45 0.0 0.0 0.00 0.00 0.00 74 1016.6
20260510053042 45 0.0 0.0 0.00 0.00 0.00 74 1016.8
20260510052535 44 0.0 0.0 0.00 0.00 0.00 75 1016.8
20260510052035 44 0.0 0.0 0.00 0.00 0.00 77 1016.7
20260510051604 44 0.0 0.0 0.00 0.00 0.00 78 1016.7
20260510051040 44 0.0 0.0 0.00 0.00 0.00 79 1016.9
20260510050536 43 0.0 0.0 0.00 0.00 0.00 80 1016.8
20260510050045 43 0.0 0.0 0.00 0.00 0.00 81 1016.9
20260510045535 43 0.0 0.0 0.00 0.00 0.00 82 1017.0
20260510045035 42 0.0 0.0 0.00 0.00 0.00 83 1017.0
20260510044543 42 0.0 0.0 0.00 0.00 0.00 84 1017.0
20260510044035 42 0.0 0.0 0.00 0.00 0.00 85 1017.1
20260510043534 42 0.0 0.0 0.00 0.00 0.00 84 1017.2
20260510043115 41 0.0 0.0 0.00 0.00 0.00 84 1017.3
20260510042534 41 0.0 0.0 0.00 0.00 0.00 84 1017.4
20260510042034 41 0.0 0.0 0.00 0.00 0.00 84 1017.3
20260510041551 41 0.0 0.0 0.00 0.00 0.00 84 1017.3
20260510041034 41 0.0 0.0 0.00 0.00 0.00 83 1017.5
20260510040537 41 0.0 0.0 0.00 0.00 0.00 82 1017.4
20260510040046 41 0.0 0.0 0.00 0.00 0.00 81 1017.6
20260510035534 41 0.0 0.0 0.00 0.00 0.00 81 1017.6
20260510035041 41 0.0 0.0 0.00 0.00 0.00 81 1017.7
20260510034550 41 0.0 0.0 0.00 0.00 0.00 80 1017.6
20260510034035 41 0.0 0.0 0.00 0.00 0.00 80 1017.7
20260510033536 41 0.0 0.0 0.00 0.00 0.00 80 1017.6
20260510033048 41 0.0 0.0 0.00 0.00 0.00 80 1017.7
20260510032535 41 0.0 0.0 0.00 0.00 0.00 79 1017.6
20260510032035 41 0.0 0.0 0.00 0.00 0.00 78 1017.6
20260510031607 41 0.0 0.0 0.00 0.00 0.00 78 1017.6
20260510031034 41 0.0 0.0 0.00 0.00 0.00 78 1017.5
20260510030534 41 0.0 0.0 0.00 0.00 0.00 77 1017.7
20260510030046 41 0.0 0.0 0.00 0.00 0.00 76 1017.8
20260510025536 41 0.0 0.0 0.00 0.00 0.00 76 1017.8
20260510025052 41 0.0 0.0 0.00 0.00 0.00 76 1017.9
20260510024547 41 0.0 0.0 0.00 0.00 0.00 77 1017.9
20260510024033 41 0.0 0.0 0.00 0.00 0.00 77 1017.9
20260510023536 40 0.0 0.0 0.00 0.00 0.00 77 1018.0
20260510023051 40 0.0 0.0 0.00 0.00 0.00 77 1018.0
20260510022535 40 0.0 0.0 0.00 0.00 0.00 77 1018.0
20260510022035 40 0.0 0.0 0.00 0.00 0.00 78 1018.2
20260510021545 40 0.0 0.0 0.00 0.00 0.00 79 1018.2
20260510021035 39 0.0 0.0 0.00 0.00 0.00 79 1018.3
20260510020538 39 0.0 0.0 0.00 0.00 0.00 79 1018.4
20260510020043 39 0.0 0.0 0.00 0.00 0.00 78 1018.5
20260510015535 39 0.0 0.0 0.00 0.00 0.00 76 1018.4
20260510015034 39 0.0 0.0 0.00 0.00 0.00 78 1018.6
20260510014550 39 0.0 0.0 0.00 0.00 0.00 79 1018.6
20260510014037 39 0.0 0.0 0.00 0.00 0.00 79 1018.7
20260510013535 39 0.0 0.0 0.00 0.00 0.00 80 1018.8
20260510013046 38 0.0 0.0 0.00 0.00 0.00 81 1018.8
20260510012534 38 0.0 0.0 0.00 0.00 0.00 80 1018.9
20260510012034 38 0.0 0.0 0.00 0.00 0.00 80 1019.0
20260510011602 38 0.0 0.0 0.00 0.00 0.00 80 1019.0
20260510011031 38 0.0 0.0 0.00 0.00 0.00 81 1019.1
20260510010536 38 0.0 0.0 0.00 0.00 0.00 81 1019.2
20260510010050 38 0.0 0.0 0.00 0.00 0.00 80 1019.3
20260510005534 39 0.0 0.0 0.00 0.00 0.00 80 1019.3
20260510005035 39 0.0 0.0 0.00 0.00 0.00 80 1019.4
20260510004544 39 0.0 0.0 0.00 0.00 0.00 79 1019.6
20260510004032 39 0.0 0.0 0.00 0.00 0.00 80 1019.7
20260510003535 39 0.0 0.0 0.00 0.00 0.00 81 1019.8
20260510003042 39 0.0 0.0 0.00 0.00 0.00 83 1019.9
20260510002535 39 0.0 0.0 0.00 0.00 0.00 85 1019.8
20260510002033 38 0.0 0.0 0.00 0.00 0.00 86 1019.9
20260510001542 38 0.0 0.0 0.00 0.00 0.00 87 1020.0
20260510001035 38 0.0 0.0 0.00 0.00 0.00 88 1020.0
20260510000533 38 0.0 0.0 0.00 0.00 0.00 89 1020.2
20260510000050 38 0.0 0.0 0.00 0.00 0.00 90 1020.4
20260509235533 37 0.0 0.0 0.00 0.00 0.00 91 1020.1
20260509235035 37 0.0 0.0 0.00 0.00 0.00 91 1020.3
20260509234537 38 0.0 0.0 0.00 0.00 0.00 91 1020.4
20260509234033 38 0.0 0.0 0.00 0.00 0.00 91 1020.5
20260509233535 38 0.0 0.0 0.00 0.00 0.00 92 1020.4
20260509233047 38 0.0 0.0 0.00 0.00 0.00 92 1020.4
20260509232537 38 0.0 0.0 0.00 0.00 0.00 92 1020.5
20260509232031 38 0.0 0.0 0.00 0.00 0.00 92 1020.7
20260509231550 38 0.0 0.0 0.00 0.00 0.00 92 1020.6
20260509231030 38 0.0 0.0 0.00 0.00 0.00 92 1020.8
20260509230534 38 0.0 0.0 0.00 0.00 0.00 92 1020.7
20260509230045 39 0.0 0.0 0.00 0.00 0.00 91 1020.8
20260509225533 39 0.0 0.0 0.00 0.00 0.00 91 1020.8
20260509225034 39 0.0 0.0 0.00 0.00 0.00 91 1020.9
20260509224540 39 0.0 0.0 0.00 0.00 0.00 91 1020.9
20260509224035 39 0.0 0.0 0.00 0.00 0.00 91 1020.9
20260509223534 40 0.0 0.0 0.00 0.00 0.00 91 1021.1
20260509223039 40 0.0 0.0 0.00 0.00 0.00 92 1021.0
20260509222535 40 0.0 0.0 0.00 0.00 0.00 91 1021.0
20260509222036 40 0.0 0.0 0.00 0.00 0.00 91 1021.1
20260509221545 40 0.0 0.0 0.00 0.00 0.00 91 1020.9